Location: 3 Angels Observatory
(30.5437°N, 88.5068°W)
Time: 11:51:33
(UTC-06:00)

Daily predictions for brighter satellites

Satellite Brightness Start Highest point End
(mag) Time Altitude Azimuth Time Altitude Azimuth Time Altitude Azimuth
MOS 1 4.4 17:07:01 10° SSE 17:12:31 55° ENE 17:18:01 10° N
Meteor 1-5 Rocket 4.3 17:07:16 10° N 17:12:47 88° E 17:18:27 10° S
Cosmos 2082 Rocket 3.8 17:14:07 10° NNE 17:16:21 12° ENE 17:18:35 10° E
Cosmos 1484 Rocket 4.2 17:15:37 10° ESE 17:18:05 17° ENE 17:20:32 10° NNE
Cosmos 2366 rocket 4.1 17:13:19 10° N 17:19:33 56° E 17:25:40 10° SSE
Cosmos 1959 Rocket 4.5 17:15:57 10° N 17:22:08 69° E 17:28:21 10° SSE
Cosmos 2218 Rocket 4.0 17:19:22 10° N 17:25:38 74° E 17:31:48 10° S
Cosmos 1500 4.2 17:25:18 10° NNE 17:28:33 26° E 17:31:49 10° SE
SPOT 3 Rocket 3.5 17:26:33 10° SSE 17:31:44 82° ENE 17:36:56 10° N
OTV 4 0.8 17:30:55 10° WNW 17:33:53 66° SSW 17:36:51 10° ESE
SMAP 3.1 17:33:04 10° SSE 17:37:42 87° WSW 17:42:22 10° NNW
CZ-3B DEB 3.6 17:36:12 10° WNW 17:39:13 23° NNW 17:45:01 10° NNE
COSMOS 2487 3.6 17:40:05 10° NNE 17:42:58 22° ENE 17:45:48 10° ESE
Hubble Space Telescope 3.6 17:42:46 10° WSW 17:44:56 14° SSW 17:47:06 10° S
SL-24 DEB 4.2 17:40:47 10° N 17:45:31 77° E 17:50:10 10° S
ATLAS 3B CENTAUR R/B 4.3 17:20:47 10° WSW 17:46:11 78° S 17:53:41 14° E
Cosmos 494 Rocket 4.0 17:45:15 10° NNW 17:50:31 89° ENE 17:55:47 10° SSE
Cosmos 1812 4.5 17:47:45 10° SSW 17:51:17 34° W 17:54:49 10° NNW
Meteor 2-21 4.5 17:47:16 10° N 17:53:20 56° E 17:59:18 10° SSE
Timation 1 Rocket 4.3 17:47:41 10° S 17:53:34 68° ESE 17:59:29 10° NNE
ATLAS 2AS CENTAUR R/B 3.0 17:46:25 10° NNW 17:54:25 88° ENE 18:01:44 10° SSE
IDEFIX/ARIANE 42P 3.2 17:49:25 10° S 17:54:33 60° W 17:59:41 10° NNW
Okean 1 4.4 17:51:47 10° SSW 17:55:40 47° W 17:59:36 10° N
MONITOR-E 4.1 17:53:37 10° SSE 17:56:47 82° E 17:59:59 10° N
CZ-2C R/B 3.4 17:52:58 10° S 17:57:44 51° W 18:02:40 10° NNW
COSMO-SKYMED 1 2.5 17:54:53 10° NNE 17:59:15 88° W 18:03:34 10° SSW
COSMOS 2441 4.4 18:02:15 10° S 18:07:06 82° WSW 18:12:01 10° NNW
ORS 1 (USA 231) 4.5 18:04:21 10° WNW 18:07:34 88° SSW 18:08:56 31° ESE
Cosmos 1346 Rocket 3.8 18:05:17 10° SSW 18:09:04 47° W 18:12:49 10° N
KM-V1 2.8 18:07:09 10° W 18:09:07 68° NW 18:09:07 68° NW
GRACE-2 3.9 18:07:06 10° S 18:09:51 80° W 18:12:04 15° N
GRACE-1 3.9 18:07:31 10° S 18:10:17 77° W 18:12:34 14° N
Nadezhda 3 Rocket 4.0 18:05:21 10° S 18:11:32 82° W 18:17:48 10° N
Meteor 2-14 Rocket 4.4 18:08:16 10° N 18:14:21 62° E 18:20:23 10° SSE
Cosmos 2297 4.2 18:11:00 10° SSW 18:16:33 59° WNW 18:22:07 10° NNE
Cosmos 1025 Rocket 3.0 18:15:08 10° S 18:19:25 62° E 18:21:57 24° NNE
Okean 2 4.2 18:17:23 10° SSE 18:20:21 32° ESE 18:20:21 32° ESE
Cosmos 375 4.1 18:18:18 10° NNW 18:22:20 72° ENE 18:24:37 23° SE
Cosmos 921 Rocket 3.6 18:19:30 10° SSW 18:23:37 54° WNW 18:27:30 12° N
Tiangong 1 3.4 18:22:37 10° NW 18:24:25 14° NNW 18:24:26 14° NNW
Intercosmos 25 2.9 18:25:25 12° N 18:28:21 83° W 18:32:02 10° S
Cosmos 2278 Rocket 4.5 18:25:53 10° WSW 18:29:57 20° WNW 18:34:01 10° NNW
Cosmos 1727 Rocket 4.4 18:27:24 10° SSE 18:32:58 37° E 18:32:58 37° E
Meteor 2-16 Rocket 4.3 18:31:33 10° N 18:37:39 89° E 18:43:44 10° S
NOAA 12 3.9 18:32:46 10° SSE 18:38:02 76° ENE 18:43:18 10° N
Delta 128 4.5 18:34:25 10° WSW 18:41:08 66° S 18:42:53 45° ESE
Genesis I 3.4 18:41:34 10° NNW 18:45:27 67° WSW 18:45:51 61° SSW
METEOR-M 4.0 18:44:45 10° SSE 18:50:04 83° ENE 18:55:26 10° N
Delta 2 Rocket 4.5 18:51:24 10° WNW 18:54:13 35° NW 18:54:13 35° NW
Cosmos 1743 4.2 18:53:39 10° NNW 18:57:13 37° W 19:00:46 10° SSW
Cosmos 1892 Rocket 4.1 18:55:07 10° S 18:58:21 50° SSW 18:58:21 50° SSW
Cosmos 1833 Rocket 2.5 18:54:38 10° NNW 19:00:18 89° ENE 19:02:10 44° SSE
Cosmos 2082 Rocket 2.3 18:55:18 10° NNW 19:00:58 75° WSW 19:06:38 10° SSE
Cosmos 2056 Rocket 4.1 18:59:56 10° SSW 19:05:12 54° WNW 19:06:59 37° NNW
GEOS 3 Rocket 3.9 19:11:18 58° NW 19:11:18 58° NW 19:15:24 10° NNW
Cosmos 1934 Rocket 4.2 19:05:59 10° N 19:12:10 70° W 19:18:25 10° S
Centaur D AC-25 4.4 19:06:54 10° WSW 19:12:44 71° SSE 19:19:03 42° E
Centaur D AC-25 4.4 19:06:54 10° WSW 19:12:44 71° SSE 19:19:04 42° E
Centaur D AC-25 4.4 19:06:54 10° WSW 19:12:44 71° SSE 19:19:05 42° E
Centaur D AC-25 4.4 19:06:54 10° WSW 19:12:45 71° SSE 19:19:05 42° E
Cosmos 2369 Rocket 3.8 19:30:16 10° SSW 19:32:27 25° SSW 19:32:27 25° SSW
ATLAS 3B CENTAUR R/B 4.4 20:24:34 10° W 20:31:11 31° W 20:31:11 31° W
